| time (UTC) | temp F | wind direction | speed MPH | gust MPH | rain 1hr in | rain 24hr in | rain mn in | humidity % | barometer mb |
| 20260508073038 | 68 | 77 | 0.0 | 3.0 | 0.00 | 0.01 | 0.00 | 86 | 1013.5 |
| 20260508071537 | 68 | 81 | 0.0 | 1.0 | 0.00 | 0.01 | 0.00 | 86 | 1013.6 |
| 20260508070107 | 68 | 101 | 0.0 | 1.0 | 0.00 | 0.01 | 0.00 | 86 | 1013.5 |
| 20260508064538 | 68 | 78 | 0.0 | 3.0 | 0.00 | 0.01 | 0.00 | 86 | 1013.4 |
| 20260508063036 | 68 | 87 | 0.0 | 3.0 | 0.00 | 0.01 | 0.00 | 86 | 1013.8 |
| 20260508061537 | 68 | 70 | 0.0 | 0.0 | 0.00 | 0.01 | 0.00 | 86 | 1014.0 |
| 20260508060034 | 68 | 81 | 0.0 | 0.0 | 0.00 | 0.01 | 0.00 | 86 | 1014.2 |
| 20260508054531 | 68 | 81 | 0.0 | 0.0 | 0.00 | 0.01 | 0.00 | 86 | 1013.9 |
| 20260508053029 | 68 | 79 | 0.0 | 3.0 | 0.00 | 0.01 | 0.00 | 86 | 1014.1 |
| 20260508051530 | 68 | 79 | 0.0 | 4.0 | 0.00 | 0.01 | 0.00 | 86 | 1014.3 |
| 20260508050025 | 69 | 77 | 1.0 | 4.0 | 0.00 | 0.01 | 0.01 | 86 | 1014.4 |
| 20260508044526 | 69 | 84 | 2.0 | 5.0 | 0.00 | 0.01 | 0.01 | 86 | 1014.3 |
| 20260508043047 | 69 | 69 | 1.0 | 3.0 | 0.00 | 0.01 | 0.01 | 86 | 1014.5 |
| 20260508041526 | 70 | 84 | 1.0 | 5.0 | 0.00 | 0.01 | 0.01 | 85 | 1014.8 |
| 20260508040124 | 70 | 86 | 1.0 | 6.0 | 0.00 | 0.01 | 0.01 | 85 | 1014.7 |
| 20260508034522 | 71 | 83 | 2.0 | 6.0 | 0.00 | 0.01 | 0.01 | 85 | 1014.7 |
| 20260508033021 | 71 | 79 | 0.0 | 3.0 | 0.00 | 0.01 | 0.01 | 85 | 1014.9 |
| 20260508031523 | 71 | 74 | 1.0 | 5.0 | 0.00 | 0.01 | 0.01 | 84 | 1015.0 |
| 20260508030023 | 72 | 40 | 0.0 | 4.0 | 0.00 | 0.01 | 0.01 | 84 | 1014.9 |
| 20260508024518 | 72 | 90 | 0.0 | 2.0 | 0.00 | 0.01 | 0.01 | 85 | 1014.7 |
| 20260508023020 | 73 | 304 | 0.0 | 2.0 | 0.00 | 0.01 | 0.01 | 85 | 1014.4 |
| 20260508021518 | 73 | 84 | 0.0 | 4.0 | 0.00 | 0.01 | 0.01 | 84 | 1014.2 |
| 20260508020017 | 73 | 96 | 0.0 | 3.0 | 0.00 | 0.01 | 0.01 | 84 | 1013.9 |
| 20260508014516 | 74 | 347 | 0.0 | 2.0 | 0.00 | 0.01 | 0.01 | 84 | 1014.0 |
| 20260508013015 | 74 | 75 | 0.0 | 2.0 | 0.00 | 0.01 | 0.01 | 84 | 1014.1 |
| 20260508011515 | 74 | 88 | 0.0 | 1.0 | 0.00 | 0.01 | 0.01 | 84 | 1013.7 |
| 20260508004514 | 75 | 84 | 0.0 | 1.0 | 0.00 | 0.01 | 0.01 | 83 | 1013.5 |
| 20260508003014 | 75 | 80 | 0.0 | 2.0 | 0.00 | 0.01 | 0.01 | 83 | 1013.0 |
| 20260508001512 | 75 | 83 | 0.0 | 1.0 | 0.00 | 0.01 | 0.01 | 82 | 1013.2 |
| 20260508000011 | 76 | 88 | 0.0 | 2.0 | 0.00 | 0.01 | 0.01 | 82 | 1013.0 |
| 20260507234511 | 76 | 87 | 0.0 | 2.0 | 0.00 | 0.01 | 0.01 | 81 | 1013.2 |
| 20260507233011 | 76 | 311 | 0.0 | 5.0 | 0.00 | 0.01 | 0.01 | 81 | 1013.5 |
| 20260507231515 | 77 | 48 | 0.0 | 0.0 | 0.00 | 0.01 | 0.01 | 81 | 1013.3 |
| 20260507230009 | 77 | 79 | 0.0 | 3.0 | 0.00 | 0.01 | 0.01 | 81 | 1013.3 |
| 20260507224508 | 77 | 88 | 1.0 | 4.0 | 0.00 | 0.01 | 0.01 | 80 | 1013.3 |
| 20260507223008 | 78 | 341 | 0.0 | 2.0 | 0.00 | 0.01 | 0.01 | 80 | 1013.2 |
| 20260507221508 | 78 | 310 | 0.0 | 3.0 | 0.00 | 0.01 | 0.01 | 79 | 1013.2 |
| 20260507220006 | 79 | 104 | 0.0 | 3.0 | 0.00 | 0.01 | 0.01 | 79 | 1013.0 |
| 20260507214505 | 79 | 304 | 0.0 | 2.0 | 0.00 | 0.01 | 0.01 | 79 | 1012.9 |
| 20260507213004 | 79 | 89 | 0.0 | 3.0 | 0.00 | 0.01 | 0.01 | 79 | 1012.8 |
| 20260507211503 | 80 | 129 | 0.0 | 4.0 | 0.00 | 0.01 | 0.01 | 77 | 1012.7 |
| 20260507210002 | 79 | 70 | 2.0 | 5.0 | 0.00 | 0.01 | 0.01 | 78 | 1012.8 |
| 20260507204603 | 78 | 301 | 0.0 | 3.0 | 0.00 | 0.01 | 0.01 | 79 | 1012.9 |
| 20260507203058 | 78 | 86 | 0.0 | 3.0 | 0.00 | 0.01 | 0.01 | 79 | 1013.0 |
| 20260507201604 | 77 | 292 | 0.0 | 3.0 | 0.00 | 0.01 | 0.01 | 79 | 1013.1 |
| 20260507200057 | 77 | 300 | 0.0 | 4.0 | 0.00 | 0.01 | 0.01 | 79 | 1013.3 |
| 20260507194602 | 75 | 75 | 0.0 | 3.0 | 0.00 | 0.01 | 0.01 | 81 | 1013.4 |
| 20260507193055 | 75 | 305 | 0.0 | 3.0 | 0.00 | 0.01 | 0.01 | 81 | 1013.7 |
| 20260507191614 | 75 | 304 | 0.0 | 3.0 | 0.00 | 0.01 | 0.01 | 80 | 1013.7 |
| 20260507190054 | 75 | 89 | 0.0 | 3.0 | 0.00 | 0.01 | 0.01 | 81 | 1013.8 |
| 20260507184601 | 74 | 300 | 0.0 | 6.0 | 0.00 | 0.01 | 0.01 | 81 | 1014.0 |
| 20260507183052 | 75 | 51 | 0.0 | 3.0 | 0.00 | 0.01 | 0.01 | 80 | 1014.0 |
| 20260507181552 | 75 | 84 | 0.0 | 2.0 | 0.00 | 0.01 | 0.01 | 80 | 1013.9 |
| 20260507180051 | 74 | 53 | 1.0 | 5.0 | 0.00 | 0.01 | 0.01 | 81 | 1014.2 |
| 20260507174551 | 74 | 84 | 0.0 | 3.0 | 0.00 | 0.01 | 0.01 | 81 | 1014.4 |
| 20260507173050 | 73 | 85 | 0.0 | 5.0 | 0.00 | 0.01 | 0.01 | 82 | 1014.5 |
| 20260507171551 | 72 | 75 | 0.0 | 3.0 | 0.00 | 0.01 | 0.01 | 83 | 1014.5 |
| 20260507170051 | 71 | 342 | 0.0 | 3.0 | 0.00 | 0.01 | 0.01 | 84 | 1014.5 |
| 20260507164604 | 70 | 319 | 0.0 | 4.0 | 0.00 | 0.01 | 0.01 | 86 | 1014.6 |
| 20260507163047 | 69 | 85 | 0.0 | 5.0 | 0.00 | 0.01 | 0.01 | 88 | 1014.8 |
| 20260507161548 | 69 | 346 | 1.0 | 5.0 | 0.00 | 0.01 | 0.01 | 88 | 1014.9 |
| 20260507160048 | 70 | 310 | 0.0 | 0.0 | 0.00 | 0.01 | 0.01 | 87 | 1014.7 |
| 20260507154543 | 70 | 89 | 0.0 | 2.0 | 0.00 | 0.01 | 0.01 | 88 | 1014.4 |
| 20260507153043 | 69 | 321 | 0.0 | 3.0 | 0.00 | 0.01 | 0.01 | 88 | 1014.5 |
| 20260507151543 | 69 | 316 | 0.0 | 5.0 | 0.00 | 0.01 | 0.01 | 93 | 1014.6 |
| 20260507150041 | 69 | 302 | 1.0 | 6.0 | 0.00 | 0.01 | 0.01 | 94 | 1014.6 |
| 20260507144540 | 69 | 327 | 0.0 | 5.0 | 0.00 | 0.01 | 0.01 | 94 | 1014.6 |
| 20260507143139 | 69 | 325 | 1.0 | 5.0 | 0.00 | 0.01 | 0.01 | 93 | 1014.5 |
| 20260507141553 | 70 | 297 | 0.0 | 2.0 | 0.00 | 0.01 | 0.01 | 94 | 1014.4 |
| 20260507140034 | 70 | 302 | 0.0 | 3.0 | 0.00 | 0.01 | 0.01 | 94 | 1014.3 |
| 20260507134532 | 70 | 302 | 0.0 | 3.0 | 0.00 | 0.01 | 0.01 | 94 | 1014.2 |
| 20260507133033 | 70 | 338 | 0.0 | 3.0 | 0.00 | 0.01 | 0.01 | 94 | 1014.0 |
| 20260507131536 | 70 | 9 | 1.0 | 4.0 | 0.00 | 0.01 | 0.01 | 93 | 1014.0 |
| 20260507130037 | 71 | 314 | 0.0 | 6.0 | 0.00 | 0.01 | 0.01 | 93 | 1013.9 |
| 20260507124520 | 72 | 308 | 1.0 | 6.0 | 0.01 | 0.01 | 0.01 | 93 | 1013.6 |
| 20260507123018 | 73 | 302 | 1.0 | 4.0 | 0.01 | 0.01 | 0.01 | 92 | 1013.3 |
| 20260507121514 | 74 | 293 | 2.0 | 7.0 | 0.01 | 0.01 | 0.01 | 91 | 1013.0 |
| 20260507120008 | 76 | 292 | 0.0 | 5.0 | 0.01 | 0.01 | 0.01 | 89 | 1012.6 |
| 20260507114506 | 77 | 264 | 0.0 | 3.0 | 0.00 | 0.00 | 0.00 | 88 | 1012.4 |
| 20260507113005 | 77 | 256 | 0.0 | 3.0 | 0.00 | 0.00 | 0.00 | 87 | 1012.1 |
| 20260507111503 | 77 | 231 | 1.0 | 4.0 | 0.00 | 0.00 | 0.00 | 87 | 1012.0 |
| 20260507104604 | 77 | 217 | 0.0 | 5.0 | 0.00 | 0.00 | 0.00 | 86 | 1011.5 |
| 20260507103059 | 77 | 245 | 1.0 | 4.0 | 0.00 | 0.00 | 0.00 | 86 | 1011.5 |
| 20260507101602 | 77 | 206 | 1.0 | 4.0 | 0.00 | 0.00 | 0.00 | 86 | 1011.1 |
| 20260507100100 | 77 | 205 | 1.0 | 6.0 | 0.00 | 0.00 | 0.00 | 86 | 1011.2 |
| 20260507094557 | 77 | 229 | 0.0 | 4.0 | 0.00 | 0.00 | 0.00 | 86 | 1011.1 |
| 20260507093055 | 77 | 250 | 1.0 | 5.0 | 0.00 | 0.00 | 0.00 | 86 | 1011.1 |
| 20260507091554 | 77 | 232 | 0.0 | 4.0 | 0.00 | 0.00 | 0.00 | 86 | 1011.0 |
| 20260507090100 | 77 | 212 | 1.0 | 4.0 | 0.00 | 0.00 | 0.00 | 86 | 1011.0 |
| 20260507084555 | 77 | 229 | 0.0 | 4.0 | 0.00 | 0.00 | 0.00 | 86 | 1011.0 |
| 20260507083051 | 77 | 200 | 0.0 | 6.0 | 0.00 | 0.00 | 0.00 | 86 | 1011.1 |
| 20260507081555 | 77 | 199 | 1.0 | 4.0 | 0.00 | 0.00 | 0.00 | 86 | 1011.2 |
| 20260507074547 | 77 | 247 | 0.0 | 3.0 | 0.00 | 0.00 | 0.00 | 86 | 1011.2 |